Regional Weather Roundup
Issued by NWS Cleveland, OH

Home | Current Version | Previous Version | Text Only | Print | Product List | Glossary Off
Versions: 1 2 3 4 5 6 7 8 9 10 11 12 13 14 15 16 17 18 19 20 21 22 23 24 25 26 27 28 29 30 31 32 33 34 35 36 37 38 39 40 41 42 43 44 45 46 47 48 49 50

000
ASUS41 KCLE 031010
RWRCLE
OHIO REGIONAL WEATHER ROUNDUP
NATIONAL WEATHER SERVICE WILMINGTON, OH
500 AM EST TUE MAR 03 2015

NOTE: "FAIR" INDICATES FEW OR NO CLOUDS BELOW 12,000 FEET WITH NO
SIGNIFICANT WEATHER AND/OR OBSTRUCTIONS TO VISIBILITY.

OHZ001>008-015>018-024>027-034-035-043-044-031100-
   NORTHWEST OHIO

CITY           SKY/WX    TMP DP  RH WIND       PRES   REMARKS
DEFIANCE       CLOUDY    23  14  68 E6        30.20F WCI  16
FINDLAY        CLOUDY    22  13  68 E9        30.19F WCI  12
TOLEDO EXPRESS CLOUDY    21  14  74 SE5       30.21F WCI  15
TOLEDO EXEC    CLOUDY    22  14  71 E8        30.22F WCI  12
LIMA           CLOUDY    23  14  68 SE13      30.17F WCI  11
$$

OHZ009>014-019>023-028>033-038-089-031100-
   NORTHEAST OHIO

CITY           SKY/WX    TMP DP  RH WIND       PRES   REMARKS
CLE-HOPKINS    CLOUDY    23  13  65 S5        30.31S WCI  17
CLE-LAKEFRONT  CLOUDY    24  12  60 SE7       30.29S WCI  16
CUY CO. ARPT   NOT AVBL
LORAIN-ELYRIA  CLOUDY    20  12  71 S6        30.27F WCI  12
ASHTABULA      CLOUDY    17   8  67 SE9       30.31S WCI   6
AKRON-CANTON   CLOUDY    22  11  62 E7        30.26F WCI  13
WOOSTER        CLOUDY    20  12  71 SE3       30.26S
MANSFIELD      CLOUDY    22  13  68 E7        30.22F WCI  13
YOUNGSTOWN     CLOUDY    19  10  68 E10       30.28F WCI   7
$$

OHZ042-051>053-060>062-070>072-077>081-031100-
  SOUTHWEST OHIO

CITY           SKY/WX    TMP DP  RH WIND       PRES   REMARKS
CINC-COVINGTON CLOUDY    28  17  63 E7        30.18F WCI  21
CINC-LUNKEN    MOCLDY    27  18  69 NE3       30.22F
HAMILTON       MOCLDY    27  18  69 E5        30.21F WCI  22
DAYTON         CLOUDY    25  15  66 SE12      30.19F WCI  14
WRIGHT-PAT AFB MOCLDY    25  15  67 E6        30.20F WCI  18
DAYTON GENERAL MOCLDY    25  15  66 E7        30.18F WCI  17
WILMINGTON     MOCLDY    23  15  71 E6        30.18F WCI  16
$$

OHZ036-037-039>041-045>050-054>059-063>069-073>076-082>088-031100-
  CENTRAL AND SOUTHEAST OHIO

CITY           SKY/WX    TMP DP  RH WIND       PRES   REMARKS
COLUMBUS       CLOUDY    25  13  60 SE3       30.24S
OSU AIRPORT    CLOUDY    25  14  63 CALM      30.24S
BOLTON FIELD   CLOUDY   N/A N/A N/A E3        30.24S
RICKENBACK AFB CLOUDY    23  14  70 NE6       30.25R WCI  15
NEWARK         CLOUDY    24  13  62 N3        30.24S
MARION         CLOUDY    23  13  65 E8        30.21F WCI  14
LANCASTER      CLOUDY    23  17  78 CALM      30.24F
ZANESVILLE     CLOUDY    25  14  63 NE3       30.23F
NEW PHILLY     CLOUDY    21  14  74 CALM      30.27F
$$


USA.gov is the U.S. government's official web portal to all federal, state and local government web resources and services.